This is the latest recevied weather packets stored in our database for station/object K7ZQU-7. If no packets are shown the sender has not sent any weather packets the latest 10 day(s).
| Time | Temp. | Humidity | Pressure | Rain* | Wind** | Luminosity | Snow |
|---|---|---|---|---|---|---|---|
| 1777815733 | 10° C | 62% | 1014.1 hPa | 0 mm | 0.89 m/s, 204° | - | - |
| 1777815135 | 9.44° C | 64% | 1014 hPa | 0 mm | 1.34 m/s, 183° | - | - |
| 1777814833 | 9.44° C | 65% | 1013.9 hPa | 0 mm | 1.79 m/s, 208° | - | - |
| 1777814534 | 9.44° C | 64% | 1014 hPa | 0 mm | 0.89 m/s, 221° | - | - |
| 1777813936 | 9.44° C | 64% | 1013.9 hPa | 0 mm | 0.89 m/s, 207° | - | - |
| 1777813637 | 8.89° C | 65% | 1013.9 hPa | 0 mm | 0.45 m/s, 187° | - | - |
| 1777813335 | 8.89° C | 66% | 1013.9 hPa | 0 mm | 0 m/s | - | - |
| 1777813036 | 8.89° C | 66% | 1013.9 hPa | 0 mm | 0.89 m/s, 110° | - | - |
| 1777812737 | 8.89° C | 66% | 1013.9 hPa | 0 mm | 0.45 m/s, 239° | - | - |
| 1777812438 | 8.89° C | 65% | 1013.8 hPa | 0 mm | 1.79 m/s, 243° | - | - |
| 1777812139 | 8.89° C | 65% | 1013.9 hPa | 0 mm | 0.89 m/s, 139° | - | - |
| 1777811837 | 8.89° C | 65% | 1013.9 hPa | 0 mm | 1.34 m/s, 204° | - | - |
| 1777811538 | 8.89° C | 65% | 1014 hPa | 0 mm | 0.89 m/s, 186° | - | - |
| 1777811239 | 8.89° C | 65% | 1014 hPa | 0 mm | 0.89 m/s, 183° | - | - |
| 1777810641 | 8.89° C | 65% | 1014 hPa | 0 mm | 1.34 m/s, 174° | - | - |
| 1777810340 | 8.89° C | 64% | 1013.9 hPa | 0 mm | 0.89 m/s, 204° | - | - |
| 1777810041 | 8.89° C | 64% | 1013.9 hPa | 0 mm | 0.45 m/s, 235° | - | - |
| 1777809742 | 8.89° C | 64% | 1013.9 hPa | 0 mm | 0.45 m/s, 193° | - | - |
| 1777809144 | 8.89° C | 65% | 1014 hPa | 0 mm | 0.45 m/s, 190° | - | - |
| 1777808842 | 8.89° C | 65% | 1014 hPa | 0 mm | 0.45 m/s, 222° | - | - |
| 1777808543 | 8.89° C | 64% | 1014.1 hPa | 0 mm | 0.89 m/s, 117° | - | - |
| 1777808244 | 8.89° C | 64% | 1014 hPa | 0 mm | 0.45 m/s, 132° | - | - |
| 1777807646 | 8.89° C | 63% | 1014.1 hPa | 0 mm | 0 m/s | - | - |
| 1777807344 | 9.44° C | 62% | 1014.1 hPa | 0 mm | 0 m/s | - | - |
| 1777807045 | 9.44° C | 61% | 1014.3 hPa | 0 mm | 0.45 m/s, 208° | - | - |
* Rain latest hour (hover to see other rain measurements)
** Current wind speed in m/s (hover to see current wind gust speed)